Train No Train Name From To Distance Stops avg_speed (km/hr)
12561 Swatantrata Sainani Express Jaynagar New Delhi 1241 20 55
A Train's "Departure" Station, "Arrival" Station and "Distance" may vary. Although we have verified some of this data from enquiry.indianrail.gov.in
Train No Start Date (yyyy-mm-dd) Status Delay Time Source
12561 2017-01-02 Late 32 hours 40 minutes Source
12561 2017-01-03 Late 31 hours 20 minutes Source
12561 2017-01-04 Late 39 hours 35 minutes Source
12561 2017-01-06 Late 29 hours 12 minutes Source
12561 2017-01-08 Late 16 hours 50 minutes Source
12561 2017-01-10 Late 16 hours 39 minutes Source
12561 2017-01-11 Late 23 hours 05 minutes Source
12561 2017-01-16 Late 17 hours 42 minutes Source
12561 2017-01-17 Late 17 hours 55 minutes Source
12561 2017-01-23 Late 15 hours 45 minutes Source
12561 2017-01-25 Late 18 hours 21 minutes Source
12561 2017-01-30 Late 15 hours 08 minutes Source
12561 2017-01-31 Late 22 hours 40 minutes Source
12561 2017-02-01 Late 25 hours 03 minutes Source
12561 2017-02-03 Late 17 hours 00 minutes Source
12561 2017-02-06 Late 19 hours 30 minutes Source
12561 2017-02-21 Late 20 hours 13 minutes Source
12561 2017-02-22 Late 16 hours 15 minutes Source
12561 2017-03-10 Late 16 hours 28 minutes Source
12561 2017-03-13 Late 22 hours 53 minutes Source
Page 1 of 1, showing 20 records out of 20 total